User: anonymous   Login
Location: New Plymouth
(39.0670°S, 174.0830°E)
Time: 13:51:56
(UTC+13:00)
Language:

Helios 1B rocket - Orbit

View from above orbital plane
View from above orbital plane
View from above satellite
View from above satellite

Ground track
Ground track

The orbit data is extracted from the following two-line orbital elements,

1 25979U 99064C   19295.11123911 -.00000148  00000-0 -76341-5 0  9996
2 25979  98.1486 198.6222 0006888  15.2541 344.8885 14.95823818 78260
Epoch (UTC): 22 October 2019 02:40:11
Eccentricity: 0.0006888
inclination: 98.1486°
perigee height: 575 km
apogee height: 584 km
right ascension of ascending node: 198.6222°
argument of perigee: 15.2541°
revolutions per day: 14.95823818
mean anomaly at epoch: 344.8885°
orbit number at epoch: 7826

The dashed part of the orbit path shows where the satellite is in the earth's shadow,  

DLR